EW8450 Weather Reports


time (UTC)temp
F
wind
direction
speed
knots
gust
knots
rain 1hr
in
rain 24hr
in
rain mn
in
humidity
%
barometer
mb
20260505064218 60 209 0.9 4.3 0.00 0.00 0.00 77 1010.7
20260505063718 60 193 0.9 3.5 0.00 0.00 0.00 76 1010.6
20260505063218 60 162 0.9 3.5 0.00 0.00 0.00 76 1010.5
20260505062718 60 0 1.7 4.3 0.00 0.00 0.00 76 1010.4
20260505062219 60 340 1.7 4.3 0.00 0.00 0.00 76 1010.5
20260505061718 61 196 1.7 5.2 0.00 0.00 0.00 76 1010.4
20260505061506 61 189 1.7 5.2 0.00 0.00 0.00 75 1010.3
20260505060719 61 180 0.9 3.5 0.00 0.00 0.00 75 1010.3
20260505060219 62 0 0.9 3.5 0.00 0.00 0.00 74 1010.3
20260505055718 62 0 1.7 4.3 0.00 0.00 0.00 74 1010.3
20260505055216 62 169 0.9 4.3 0.00 0.00 0.00 73 1010.2
20260505054715 62 176 0.9 4.3 0.00 0.00 0.00 72 1010.2
20260505054504 63 165 0.9 4.3 0.00 0.00 0.00 72 1010.2
20260505053716 63 215 0.9 4.3 0.00 0.00 0.00 71 1010.2
20260505053216 63 189 1.7 4.3 0.00 0.00 0.00 70 1010.2
20260505052716 64 164 1.7 4.3 0.00 0.00 0.00 70 1010.1
20260505052215 64 0 0.9 4.3 0.00 0.00 0.00 70 1010.1
20260505051717 64 174 0.9 4.3 0.00 0.00 0.00 70 1010.0
20260505051216 64 0 0.9 3.5 0.00 0.00 0.00 69 1009.9
20260505050712 64 185 0.9 5.2 0.00 0.00 0.00 68 1009.9
20260505050212 64 0 0.9 5.2 0.00 0.00 0.00 68 1009.9
20260505041707 67 0 0.0 1.7 0.00 0.00 0.00 64 1009.4
20260505041207 68 0 0.0 1.7 0.00 0.00 0.00 63 1009.3
20260505040708 68 0 0.0 0.0 0.00 0.00 0.00 63 1009.2
20260505040457 68 0 0.0 0.0 0.00 0.00 0.00 64 1009.1
20260505035705 68 0 0.0 0.0 0.00 0.00 0.00 64 1009.1
20260505035205 69 0 0.0 0.0 0.00 0.00 0.00 64 1009.0
20260505034706 69 0 0.0 0.0 0.00 0.00 0.00 63 1008.9
20260505034205 69 0 0.0 0.0 0.00 0.00 0.00 63 1008.8
20260505033706 70 0 0.0 0.0 0.00 0.00 0.00 61 1008.7
20260505033205 70 0 0.0 0.0 0.00 0.00 0.00 61 1008.6
20260505032705 71 0 0.0 0.0 0.00 0.00 0.00 60 1008.6
20260505032205 71 0 0.0 0.0 0.00 0.00 0.00 59 1008.5
20260505031954 72 0 0.0 0.0 0.00 0.00 0.00 57 1008.4
20260505031205 73 0 0.0 0.0 0.00 0.00 0.00 55 1008.4
20260505030957 73 0 0.0 1.7 0.00 0.00 0.00 54 1008.3
20260505030456 73 0 0.0 1.7 0.00 0.00 0.00 52 1008.3
20260505025704 74 0 0.0 0.0 0.00 0.00 0.00 52 1008.3
20260505025204 74 0 0.0 0.0 0.00 0.00 0.00 51 1008.3
20260505024704 74 0 0.0 2.6 0.00 0.00 0.00 50 1008.2
20260505024204 75 0 0.0 2.6 0.00 0.00 0.00 49 1008.2
20260505023703 75 0 0.0 2.6 0.00 0.00 0.00 47 1008.2
20260505023201 76 0 0.0 3.5 0.00 0.00 0.00 46 1008.2
20260505022701 76 0 0.0 3.5 0.00 0.00 0.00 45 1008.2
20260505022452 76 335 0.0 2.6 0.00 0.00 0.00 45 1008.2
20260505021701 77 0 0.0 2.6 0.00 0.00 0.00 43 1008.2
20260505021201 77 0 0.0 2.6 0.00 0.00 0.00 42 1008.2
20260505020954 77 0 0.0 0.0 0.00 0.00 0.00 42 1008.2
20260505020201 77 0 0.0 1.7 0.00 0.00 0.00 41 1008.2
20260505015700 78 0 0.0 1.7 0.00 0.00 0.00 41 1008.2
20260505015200 78 0 0.0 2.6 0.00 0.00 0.00 38 1008.2
20260505014700 78 315 0.0 3.5 0.00 0.00 0.00 39 1008.2
20260505014201 78 0 0.0 3.5 0.00 0.00 0.00 37 1008.2
20260505013701 78 0 0.9 3.5 0.00 0.00 0.00 37 1008.2
20260505013200 78 0 0.9 3.5 0.00 0.00 0.00 36 1008.2
20260505012701 79 0 0.0 2.6 0.00 0.00 0.00 36 1008.3
20260505012200 79 0 0.0 3.5 0.00 0.00 0.00 36 1008.3
20260505011952 79 0 0.9 3.5 0.00 0.00 0.00 35 1008.3
20260505011201 79 0 0.9 4.3 0.00 0.00 0.00 36 1008.3
20260505010952 79 326 1.7 4.3 0.00 0.00 0.00 35 1008.4
20260505010450 80 343 1.7 5.2 0.00 0.00 0.00 35 1008.4
20260505005701 80 0 1.7 5.2 0.00 0.00 0.00 36 1008.4
20260505005201 80 0 0.9 3.5 0.00 0.00 0.00 35 1008.4
20260505004700 80 317 0.9 3.5 0.00 0.00 0.00 37 1008.4
20260505004451 80 179 1.7 4.3 0.00 0.00 0.00 36 1008.4
20260505003702 80 0 1.7 4.3 0.00 0.00 0.00 36 1008.4
20260505003203 80 342 0.9 4.3 0.00 0.00 0.00 34 1008.4
20260505002951 80 336 0.9 4.3 0.00 0.00 0.00 34 1008.4
20260505002202 80 0 0.9 3.5 0.00 0.00 0.00 35 1008.4
20260505001952 80 0 0.9 3.5 0.00 0.00 0.00 34 1008.5
20260505001201 80 144 0.9 3.5 0.00 0.00 0.00 35 1008.5
20260505000701 80 0 0.9 3.5 0.00 0.00 0.00 35 1008.4
20260505000201 80 330 1.7 3.5 0.00 0.00 0.00 34 1008.5
20260504235701 80 322 0.9 2.6 0.00 0.00 0.00 34 1008.6
20260504235200 80 318 0.9 3.5 0.00 0.00 0.00 35 1008.6
20260504234700 80 0 0.9 3.5 0.00 0.00 0.00 36 1008.6
20260504234201 79 0 1.7 6.1 0.00 0.00 0.00 35 1008.6
20260504233701 79 0 1.7 6.1 0.00 0.00 0.00 36 1008.6
20260504233201 80 334 1.7 5.2 0.00 0.00 0.00 36 1008.6
20260504232701 80 0 1.7 5.2 0.00 0.00 0.00 35 1008.6
20260504232200 80 335 1.7 5.2 0.00 0.00 0.00 36 1008.6
20260504231702 80 0 1.7 3.5 0.00 0.00 0.00 35 1008.6
20260504231201 80 312 1.7 3.5 0.00 0.00 0.00 36 1008.6
20260504230701 80 0 1.7 6.1 0.00 0.00 0.00 37 1008.6
20260504230200 80 0 0.9 6.1 0.00 0.00 0.00 37 1008.7
20260504225701 79 323 0.9 4.3 0.00 0.00 0.00 37 1008.8
20260504225201 79 291 1.7 4.3 0.00 0.00 0.00 37 1008.8
20260504224734 80 344 1.7 4.3 0.00 0.00 0.00 37 1008.9
20260504223703 79 199 1.7 5.2 0.00 0.00 0.00 39 1008.9
20260504223203 79 342 1.7 6.1 0.00 0.00 0.00 39 1009.1
20260504222948 79 340 2.6 6.1 0.00 0.00 0.00 38 1009.2
20260504222200 79 342 2.6 7.0 0.00 0.00 0.00 38 1009.1
20260504221701 79 336 1.7 7.0 0.00 0.00 0.00 38 1009.2
20260504221201 79 336 1.7 5.2 0.00 0.00 0.00 38 1009.2
20260504220701 78 0 1.7 4.3 0.00 0.00 0.00 38 1009.3
20260504220201 78 320 2.6 5.2 0.00 0.00 0.00 37 1009.3
20260504215700 78 329 2.6 5.2 0.00 0.00 0.00 38 1009.3
20260504215201 79 337 1.7 4.3 0.00 0.00 0.00 36 1009.4
20260504214701 78 328 2.6 5.2 0.00 0.00 0.00 36 1009.4
20260504214448 79 330 2.6 5.2 0.00 0.00 0.00 36 1009.3
20260504213701 79 341 2.6 5.2 0.00 0.00 0.00 36 1009.4
20260504213200 79 62 1.7 5.2 0.00 0.00 0.00 36 1009.3
20260504212701 78 305 2.6 6.1 0.00 0.00 0.00 38 1009.3
20260504212448 78 309 2.6 6.1 0.00 0.00 0.00 37 1009.3
20260504211701 78 330 2.6 4.3 0.00 0.00 0.00 37 1009.3
20260504211201 78 324 1.7 6.1 0.00 0.00 0.00 37 1009.3
20260504210701 78 319 1.7 6.1 0.00 0.00 0.00 38 1009.3
20260504210201 78 338 1.7 4.3 0.00 0.00 0.00 39 1009.4
20260504205702 78 327 1.7 4.3 0.00 0.00 0.00 38 1009.4
20260504205203 78 0 1.7 5.2 0.00 0.00 0.00 38 1009.6
20260504204703 78 0 1.7 6.1 0.00 0.00 0.00 39 1009.6
20260504204203 78 337 2.6 6.1 0.00 0.00 0.00 39 1009.6
20260504203702 78 332 1.7 5.2 0.00 0.00 0.00 39 1009.6
20260504203449 77 337 2.6 5.2 0.00 0.00 0.00 41 1009.5
20260504202948 77 344 2.6 5.2 0.00 0.00 0.00 41 1009.5
20260504202201 77 300 1.7 5.2 0.00 0.00 0.00 41 1009.5
20260504201701 77 334 1.7 5.2 0.00 0.00 0.00 41 1009.5
20260504201201 77 347 2.6 5.2 0.00 0.00 0.00 42 1009.5
20260504200700 77 309 1.7 3.5 0.00 0.00 0.00 42 1009.5
20260504200201 76 314 1.7 4.3 0.00 0.00 0.00 43 1009.5
20260504195701 76 0 0.9 4.3 0.00 0.00 0.00 43 1009.5
20260504195201 76 310 1.7 4.3 0.00 0.00 0.00 41 1009.5
20260504194701 76 340 0.9 4.3 0.00 0.00 0.00 41 1009.6
20260504194201 76 331 0.9 3.5 0.00 0.00 0.00 43 1009.6
20260504193700 75 313 1.7 3.5 0.00 0.00 0.00 43 1009.8
20260504193200 75 327 1.7 3.5 0.00 0.00 0.00 42 1009.8
20260504192659 75 0 0.9 3.5 0.00 0.00 0.00 42 1009.8
20260504192231 74 302 0.9 3.5 0.00 0.00 0.00 43 1009.8
20260504191200 74 301 1.7 5.2 0.00 0.00 0.00 41 1009.8
20260504190700 73 0 0.9 4.3 0.00 0.00 0.00 43 1009.9
20260504190446 73 0 0.9 2.6 0.00 0.00 0.00 42 1009.9
20260504185700 73 315 0.9 3.5 0.00 0.00 0.00 44 1009.9
20260504185200 73 0 0.9 4.3 0.00 0.00 0.00 43 1010.0
20260504184700 73 0 0.9 4.3 0.00 0.00 0.00 43 1010.0
20260504184200 73 0 0.9 4.3 0.00 0.00 0.00 46 1010.0
20260504183657 72 177 0.0 4.3 0.00 0.00 0.00 45 1009.9
20260504183443 72 307 0.0 2.6 0.00 0.00 0.00 46 1010.0
20260504182657 72 0 0.0 2.6 0.00 0.00 0.00 46 1010.1
20260504182443 71 0 0.9 5.2 0.00 0.00 0.00 46 1010.0
20260504181938 71 0 0.9 5.2 0.00 0.00 0.00 47 1010.0
20260504181150 71 0 1.7 3.5 0.00 0.00 0.00 47 1010.1
20260504180651 71 331 0.9 3.5 0.00 0.00 0.00 48 1010.1
20260504180151 71 0 0.9 2.6 0.00 0.00 0.00 47 1010.1
20260504175650 71 277 0.9 3.5 0.00 0.00 0.00 49 1010.1
20260504175151 71 0 0.9 3.5 0.00 0.00 0.00 50 1010.1
20260504174940 70 0 0.9 3.5 0.00 0.00 0.00 50 1010.0
20260504174151 70 342 0.9 3.5 0.00 0.00 0.00 51 1010.1
20260504173651 70 0 1.7 4.3 0.00 0.00 0.00 51 1010.0
20260504173151 69 0 0.9 4.3 0.00 0.00 0.00 49 1009.9
20260504172650 69 337 0.0 2.6 0.00 0.00 0.00 50 1009.9
20260504172150 69 0 0.0 2.6 0.00 0.00 0.00 51 1010.0
20260504171940 69 0 0.0 2.6 0.00 0.00 0.00 52 1010.0
20260504171150 68 0 0.0 1.7 0.00 0.00 0.00 54 1010.0
20260504170650 68 0 0.9 2.6 0.00 0.00 0.00 57 1010.0
20260504170150 68 345 0.9 2.6 0.00 0.00 0.00 57 1010.0
20260504160147 61 0 0.0 0.9 0.00 0.00 0.00 68 1009.8
20260504151146 57 280 0.9 1.7 0.00 0.00 0.00 79 1009.5
20260504150647 56 280 0.9 1.7 0.00 0.00 0.00 81 1009.5
20260504150146 55 278 0.9 1.7 0.00 0.00 0.00 84 1009.4
20260504141144 51 0 0.0 0.0 0.00 0.00 0.00 95 1009.2
20260504140644 51 0 0.0 0.0 0.00 0.00 0.00 95 1009.2
20260504140144 51 0 0.0 0.0 0.00 0.00 0.00 95 1009.2
20260504130142 50 0 0.0 0.0 0.00 0.00 0.00 95 1008.7
20260504120147 51 0 0.0 0.0 0.00 0.00 0.00 94 1008.6
20260504110638 52 0 0.0 1.7 0.00 0.00 0.00 93 1008.7
20260504110138 52 0 0.0 0.0 0.00 0.00 0.00 93 1008.6
20260504100133 53 0 0.0 2.6 0.00 0.00 0.00 92 1008.5
20260504090128 54 0 0.0 0.0 0.00 0.00 0.00 91 1008.5
20260504081629 55 0 0.0 0.0 0.00 0.00 0.00 90 1008.5
20260504081129 55 0 0.0 0.0 0.00 0.00 0.00 87 1008.6
20260504080629 56 0 0.0 0.0 0.00 0.00 0.00 87 1008.6
20260504080129 56 0 0.0 0.0 0.00 0.00 0.00 86 1008.7
20260504070129 58 0 0.0 0.0 0.00 0.00 0.00 87 1008.8